SL-16 R/B - Orbit

View from above orbital plane
View from above orbital plane
View from above satellite
View from above satellite

Ground track
Ground track

The orbit data is extracted from the following two-line orbital elements,

1 27006U 01056F   13167.86538083 -.00000022  00000-0  21673-4 0  8612
2 27006 099.1400 348.2074 0015067 165.7939 330.1801 13.70903938576262
Epoch (UTC): 16 June 2013 20:46:08
Eccentricity: 0.0015067
inclination: 99.1400°
perigee height: 985 km
apogee height: 1007 km
right ascension of ascending node: 348.2074°
argument of perigee: 165.7939°
revolutions per day: 13.70903938
mean anomaly at epoch: 330.1801°
orbit number at epoch: 57626

The dashed part of the orbit path shows where the satellite is in the earth's shadow,  

Developed and maintained by Chris Peat, Heavens-Above GmbH. Please read the updated FAQ before sending e-mail. Imprint. DLR